Wind_Speed
48 48 45 48 50 53 52 50 50 50 49 49 48 49 48 49 50 51 53 57 60 61 59 59 58 56 54 54 51 51 47 42 46 45 45 49 47 37 39 36 37 37 38 40 39 41 44 37 39 41 44 46 48 49
43 46 48 49 47 49 50 52 53 53 53 51 51 50 49 47 43 46 48 50 53 53 52 49 51 50 38 45 44 49 50 43 47 48 41 35 44 48 47 42 35 39 35 37 38 37 38 37 42 48 45 42 41 39
42 44 47 50 51 51 47 46 46 49 52 52 52 52 51 49 46 46 47 50 54 52 54 50 49 54 51 37 40 37 41 46 52 47 41 47 46 48 46 43 42 37 34 37 39 38 39 43 43 45 45 44 40 39
23 27 33 40 46 44 43 44 45 45 46 48 48 47 46 46 45 39 40 46 53 47 51 48 43 48 49 53 44 42 39 40 45 47 53 52 49 48 49 47 39 37 37 41 45 43 44 43 44 46 47 44 42 40
21 25 28 31 34 35 36 41 46 49 47 44 40 38 38 42 43 34 39 40 46 47 50 48 40 36 38 44 44 38 32 39 41 40 52 52 54 55 53 46 46 44 44 46 50 47 47 46 43 42 43 43 41 39
6 5 6 9 12 18 25 30 34 36 36 37 38 38 35 34 37 37 47 46 42 47 50 42 38 23 30 36 38 41 45 47 45 41 44 48 49 50 45 49 40 40 44 46 49 45 42 40 40 41 42 42 41 40
4 3 3 3 5 8 11 16 20 22 24 26 28 30 33 37 39 36 36 45 49 50 49 46 48 41 28 33 38 41 44 42 41 43 43 38 35 35 42 44 36 38 38 39 37 37 38 40 42 43 43 43 43 43
4 3 3 5 6 8 12 13 13 17 19 22 24 27 29 32 36 40 33 37 36 40 41 46 53 50 44 38 37 37 39 40 43 42 39 36 39 40 44 34 32 34 34 33 36 39 40 41 42 42 43 43 45 48
8 6 9 15 12 3 2 6 11 13 17 21 22 24 27 29 30 28 34 37 36 35 33 35 41 54 53 46 44 44 46 48 44 43 44 45 43 42 35 31 34 33 31 32 34 38 40 41 42 43 45 49 49 46
13 10 12 10 11 11 6 6 4 1 8 22 25 25 21 20 21 27 31 32 30 32 44 44 32 26 40 46 49 46 44 40 38 37 38 34 33 31 33 35 35 35 37 38 41 43 45 46 46 47 47 46 43 39
12 10 7 6 7 12 10 10 14 11 9 7 4 8 13 15 16 19 18 22 22 23 27 35 37 30 29 27 27 31 34 34 32 30 33 31 28 30 35 37 39 42 45 46 45 48 48 48 45 41 38 35 32 30
7 5 3 5 4 3 10 11 12 9 7 5 6 8 12 12 16 18 18 19 20 22 21 21 23 25 25 25 26 29 31 31 33 30 30 30 29 33 35 38 41 43 46 48 49 49 44 39 36 34 33 33 32 31
4 3 3 4 3 1 3 3 5 7 7 6 6 7 8 11 14 13 13 9 14 15 14 15 18 22 25 26 27 29 31 32 32 35 36 34 35 38 42 44 45 47 48 47 43 40 38 37 36 35 36 36 36 36
9 8 8 8 5 3 1 4 4 4 4 3 3 4 8 10 9 8 9 12 11 13 15 17 21 23 25 29 32 34 36 38 41 41 39 40 43 46 46 45 45 43 41 40 40 41 41 41 41 42 42 43 43 43
9 9 9 7 8 8 6 2 3 6 9 10 12 14 14 15 17 17 18 19 20 22 25 26 28 30 32 35 37 39 42 45 45 46 46 46 46 46 44 43 43 42 43 43 44 45 45 46 46 47 47 47 48 48
10 9 8 8 7 6 6 6 6 6 7 8 9 12 14 15 17 19 21 24 27 30 33 35 35 37 38 41 42 43 45 45 45 45 45 45 45 45 46 46 47 47 47 47 47 48 49 50 51 51 51 52 54 55
9 9 9 10 9 9 8 9 10 11 12 13 14 17 18 20 22 24 25 27 28 30 31 33 35 36 38 39 40 41 42 44 45 46 46 47 47 48 48 48 48 48 48 49 50 51 52 53 55 57 57 57 59 58
13 14 14 15 15 16 17 18 18 20 21 22 24 25 26 27 28 29 31 33 35 37 39 39 40 40 41 41 41 42 43 43 44 44 45 46 47 48 48 47 47 49 50 51 51 52 53 55 57 57 59 59 60 59
21 22 21 22 23 23 24 25 27 28 29 29 30 30 30 31 32 33 34 36 38 40 42 42 43 42 42 42 42 42 42 43 43 43 43 46 47 46 46 46 45 45 45 45 47 47 48 50 51 52 53 53 51 48
30 30 31 32 33 34 35 35 36 36 36 35 36 34 31 31 31 31 33 34 36 37 37 37 38 38 38 38 38 38 39 39 39 37 36 38 40 40 40 40 41 42 39 37 36 37 35 33 34 34 32 31 30 31
36 37 38 39 40 41 42 41 41 39 35 32 31 28 26 25 25 25 25 26 26 27 28 29 29 29 29 29 29 28 29 28 30 31 31 32 36 35 33 35 33 27 24 25 25 25 26 22 23 20 16 15 14 16
41 42 43 43 42 40 39 36 31 28 24 23 22 22 22 23 24 24 25 25 25 24 24 23 22 21 22 22 23 24 25 26 27 28 28 25 25 28 30 28 23 21 21 19 17 16 15 14 16 16 15 15 14 15
42 42 40 39 35 31 26 22 19 18 18 19 21 23 25 25 26 27 26 26 26 24 23 21 20 20 21 22 21 20 20 21 23 23 21 20 21 19 16 17 13 11 12 14 14 16 16 15 17 18 17 16 15 16
39 34 29 26 23 18 16 13 14 15 17 20 21 20 19 17 17 17 16 17 17 17 16 15 16 17 16 16 16 16 15 17 20 19 13 13 11 8 8 10 11 12 13 13 14 14 12 8 7 7 7 8 9 9
27 23 18 16 13 11 10 11 12 15 18 16 12 11 11 11 9 7 5 2 2 3 5 6 9 11 14 17 16 14 13 13 13 9 5 6 8 9 9 9 9 11 11 5 5 7 9 12 14 13 12 10 11 10
18 15 10 9 7 7 8 10 12 15 13 7 8 9 10 11 11 10 9 7 6 5 5 6 8 8 7 9 12 11 7 5 5 4 5 6 5 6 8 9 8 3 4 8 14 16 19 18 13 11 8 6 7 8
11 7 4 3 4 6 8 11 12 13 6 5 8 9 10 10 10 10 9 8 8 8 8 8 8 8 8 8 6 5 5 5 5 5 5 4 4 6 8 7 4 8 12 17 20 19 13 6 5 11 12 11 9 9
3 1 1 2 5 6 9 11 11 10 4 4 6 8 9 11 11 10 9 9 9 8 8 8 8 8 8 7 6 5 6 7 8 9 10 8 7 7 4 7 7 12 15 15 18 13 9 14 17 18 20 18 20 20
1 0 1 2 4 8 10 10 9 8 4 1 4 7 9 11 11 11 9 9 8 7 7 6 6 5 6 6 6 6 8 10 10 9 8 9 9 6 8 9 10 14 12 11 17 26 21 21 22 23 23 24 26 30
3 1 1 2 5 8 9 10 9 7 7 2 2 4 7 10 12 11 9 8 7 7 7 8 8 8 7 6 6 7 9 9 5 7 10 12 8 9 11 10 13 12 12 14 16 23 31 30 27 26 26 27 27 28
5 4 4 4 6 7 9 9 10 9 6 5 3 3 4 7 11 12 10 7 6 6 6 7 7 6 5 5 5 6 8 5 5 9 11 12 9 11 11 10 14 14 14 16 19 22 25 28 29 31 32 31 31 32
9 9 9 8 8 8 8 9 9 9 8 6 5 5 4 4 7 10 11 8 6 6 5 6 6 4 5 5 6 7 8 5 5 8 9 9 12 11 9 12 15 14 16 18 19 22 25 26 27 28 30 32 34 37
13 13 12 12 12 11 11 11 10 9 8 7 6 5 6 5 5 6 9 9 6 5 5 5 4 2 2 5 6 7 7 6 6 6 8 9 10 12 11 11 13 14 16 18 20 21 23 24 26 27 28 29 31 33
Wind_Direction
243 242 242 243 245 248 251 255 258 260 262 263 263 260 256 252 249 247 250 252 255 251 251 253 256 255 256 254 257 259 258 255 260 257 266 274 276 274 273 275 274 272 272 269 271 272 274 279 273 267 273 274 274 275
242 242 242 245 246 248 251 254 256 260 260 258 259 260 259 260 252 247 243 247 253 256 258 248 236 249 253 262 260 257 254 247 250 255 262 261 263 259 269 276 267 272 269 266 268 276 280 284 279 281 277 278 281 284
246 246 246 247 248 249 249 249 249 253 256 257 255 255 254 253 251 246 243 241 245 252 256 252 248 245 244 252 255 259 255 249 247 256 256 253 255 269 272 263 273 268 259 267 272 280 281 282 280 276 274 279 287 290
243 247 248 248 246 244 241 240 242 245 249 253 256 255 249 246 244 241 241 239 240 251 256 255 252 235 239 246 249 258 262 255 250 248 252 259 268 265 259 259 263 255 260 274 275 277 276 277 277 273 275 280 287 287
254 256 253 251 247 241 239 241 244 247 252 252 250 243 243 236 234 228 229 235 239 248 254 256 245 238 246 243 241 243 244 248 247 241 257 260 259 264 267 267 262 263 263 269 273 273 274 277 275 274 275 281 283 281
242 219 213 220 226 234 241 245 247 249 250 250 246 241 237 232 225 220 227 231 235 243 249 248 224 215 228 239 239 242 248 244 250 261 261 270 267 265 262 262 265 271 270 268 270 273 273 272 272 274 278 281 281 281
155 158 154 174 209 227 240 245 243 241 241 240 238 238 237 230 223 219 229 237 236 243 250 249 232 223 226 235 238 241 242 246 255 261 277 271 263 250 251 259 270 265 265 265 260 266 272 273 273 275 277 279 279 280
138 171 219 224 235 243 241 242 241 249 255 252 246 243 236 232 228 218 220 243 243 248 253 248 232 234 234 234 236 241 246 253 260 269 258 254 259 246 255 263 264 267 266 262 261 268 273 274 277 278 277 277 280 280
90 90 41 52 52 47 336 326 253 244 215 237 238 239 234 231 220 215 227 239 244 246 221 232 242 247 237 242 248 253 258 263 267 259 251 259 260 259 260 262 269 262 258 265 272 278 279 279 280 279 278 278 280 280
78 74 63 59 29 20 14 7 48 186 213 204 209 219 221 212 205 217 232 241 240 236 224 225 231 248 249 255 259 261 262 255 248 250 256 258 261 257 258 268 266 259 265 271 278 285 287 283 280 277 278 280 278 276
91 71 47 49 54 58 61 70 72 59 50 58 115 151 162 180 192 207 234 236 236 243 241 233 230 241 253 255 248 248 244 244 249 251 262 259 253 261 271 271 267 265 271 278 283 286 285 283 280 277 275 275 273 271
74 100 107 35 44 46 68 74 85 91 97 88 103 149 174 177 212 207 220 227 237 240 243 238 236 241 247 251 248 242 250 253 256 258 261 259 264 271 273 273 272 274 277 281 282 282 280 278 275 274 273 273 272 270
39 19 27 39 68 19 150 105 60 61 80 116 140 165 178 209 226 221 230 247 248 259 255 243 240 242 244 250 257 261 262 263 266 268 271 273 275 276 277 277 277 277 278 280 279 277 276 275 274 274 273 272 272 272
61 53 52 51 71 94 260 281 289 275 287 276 236 224 243 242 256 261 263 269 268 267 260 258 254 251 252 260 263 262 261 264 268 270 274 277 278 279 280 279 279 280 280 279 277 276 276 276 276 275 274 274 273 273
62 73 69 51 52 62 64 35 297 284 276 266 257 256 261 267 270 271 270 267 264 259 261 264 265 265 267 268 269 269 270 272 274 278 278 276 275 277 278 278 278 278 277 276 276 275 275 275 274 274 274 274 273 272
28 27 30 33 30 23 16 9 359 346 332 313 303 293 292 285 282 279 274 271 271 271 271 272 270 268 266 265 266 267 269 271 273 273 273 275 276 277 277 277 278 278 279 279 278 278 277 276 275 274 273 273 272 272
349 338 329 322 317 312 308 302 298 297 298 297 294 290 287 285 283 281 279 277 274 270 267 265 264 263 265 264 265 267 268 268 270 273 275 276 277 278 279 279 280 280 279 279 279 278 279 279 278 277 276 274 274 273
317 314 309 307 304 300 298 298 297 295 291 289 288 286 284 281 279 277 276 275 274 273 273 274 272 272 272 273 273 275 276 276 277 278 278 277 277 278 279 280 280 281 280 281 282 282 281 279 279 278 276 274 273 272
308 306 305 304 303 301 298 296 294 294 293 292 292 289 285 282 279 276 271 268 267 267 267 268 269 271 272 273 275 276 277 277 278 279 279 279 280 281 282 281 280 280 280 281 281 281 280 279 280 280 277 274 272 269
312 312 312 310 309 308 306 305 302 302 301 301 297 295 290 283 277 270 266 265 265 266 267 269 270 271 273 275 276 277 278 279 279 278 278 278 280 282 283 284 284 285 286 285 282 280 281 283 283 285 284 277 266 258
309 308 308 307 306 304 303 304 303 303 301 297 294 289 286 281 278 275 272 270 268 267 268 270 272 274 274 275 276 276 278 279 280 280 278 280 285 288 289 287 290 290 285 282 282 280 282 283 282 286 280 272 263 255
304 305 304 304 304 304 303 304 302 301 297 296 293 291 288 285 281 276 274 271 269 269 269 271 273 275 276 278 278 279 282 284 284 285 287 287 284 281 283 290 290 289 288 290 288 284 286 282 282 282 280 274 266 257
305 305 304 304 305 305 306 304 302 301 302 301 301 299 294 288 282 278 271 268 266 265 266 269 273 277 280 284 287 290 290 289 290 295 295 295 287 286 285 285 292 289 292 293 289 287 288 286 285 285 281 274 265 259
305 305 307 307 306 307 307 307 309 310 312 314 313 311 309 303 296 287 279 272 266 264 263 268 277 285 290 291 293 296 296 293 297 298 298 286 296 301 294 297 298 298 298 297 298 296 297 302 296 292 290 290 288 282
309 311 311 312 310 312 311 316 319 324 330 331 340 356 11 16 19 19 16 357 300 280 282 285 290 294 298 304 315 318 306 300 299 308 314 306 310 312 313 314 315 315 321 342 345 317 306 292 288 287 281 274 262 246
312 314 314 315 319 320 329 331 335 342 344 358 15 16 19 25 27 28 28 24 13 1 340 329 323 322 312 305 310 320 333 336 333 329 321 327 342 345 349 346 348 18 23 352 329 324 314 301 287 273 260 217 197 196
314 315 320 324 334 339 341 342 343 349 353 11 9 13 16 17 18 17 15 10 5 356 351 346 341 336 338 347 1 7 10 17 31 33 29 10 1 357 352 6 90 46 17 359 349 344 345 350 113 125 125 126 128 131
316 318 317 337 351 355 353 351 349 351 348 1 12 19 19 18 13 12 11 6 2 1 359 2 7 5 8 18 34 50 62 69 63 56 50 47 22 2 50 107 72 49 27 23 22 32 60 108 118 117 112 107 110 107
167 159 347 7 359 349 348 353 353 355 351 345 15 20 21 17 13 10 9 5 5 10 12 15 15 18 26 43 60 75 90 96 80 56 38 24 17 37 114 94 64 38 35 49 42 60 85 106 115 116 113 112 110 109
196 229 309 337 350 355 357 359 359 358 359 264 320 1 12 19 17 10 7 8 11 20 27 29 33 35 47 68 83 99 114 104 70 41 36 19 38 106 112 88 48 45 66 89 82 75 73 81 96 107 115 119 119 118
232 245 270 299 329 340 347 353 358 358 350 342 256 290 344 5 16 15 11 15 22 26 27 26 30 35 49 79 105 122 132 118 57 48 26 26 100 118 113 70 49 55 88 105 105 101 99 95 94 98 105 110 116 119
248 255 263 276 289 307 323 337 342 348 348 337 319 258 272 326 357 13 13 11 14 24 35 39 28 40 72 95 110 119 125 119 65 51 34 59 121 116 105 70 60 71 94 112 110 110 108 108 110 112 113 115 117 119
258 262 265 271 277 285 294 304 314 317 324 325 317 295 247 259 307 353 14 16 21 27 39 46 38 37 91 125 123 126 131 117 90 74 62 91 128 119 112 95 71 81 102 114 118 117 116 115 117 118 119 122 125 127
Height
5419 5423 5428 5432 5438 5441 5445 5448 5451 5454 5457 5462 5466 5472 5475 5481 5486 5484 5489 5492 5492 5494 5501 5509 5515 5520 5524 5526 5528 5534 5536 5539 5542 5541 5545 5543 5538 5541 5543 5548 5550 5546 5545 5547 5546 5544 5543 5547 5545 5542 5540 5539 5539 5538
5406 5411 5415 5420 5424 5429 5432 5435 5438 5440 5443 5446 5452 5456 5461 5465 5467 5469 5473 5480 5479 5476 5481 5491 5500 5506 5509 5513 5515 5514 5521 5525 5530 5527 5532 5531 5530 5530 5533 5532 5536 5534 5537 5533 5535 5536 5534 5534 5532 5531 5528 5527 5526 5526
5395 5399 5403 5406 5410 5413 5417 5420 5424 5425 5427 5432 5436 5441 5444 5451 5454 5454 5459 5466 5466 5464 5467 5475 5486 5492 5497 5500 5502 5504 5507 5511 5514 5518 5521 5520 5519 5519 5520 5522 5523 5522 5523 5521 5522 5528 5524 5521 5520 5519 5516 5516 5514 5514
5385 5388 5390 5392 5395 5399 5403 5407 5409 5412 5413 5418 5423 5425 5430 5436 5441 5442 5447 5453 5455 5454 5454 5464 5468 5476 5481 5486 5490 5494 5497 5497 5500 5503 5503 5502 5505 5507 5508 5510 5512 5514 5511 5514 5512 5513 5512 5511 5509 5506 5505 5504 5504 5503
5379 5379 5380 5381 5383 5387 5391 5394 5397 5399 5402 5406 5409 5412 5416 5420 5426 5432 5437 5441 5444 5444 5446 5453 5456 5463 5468 5472 5477 5482 5486 5487 5489 5488 5489 5491 5492 5494 5495 5495 5497 5504 5503 5500 5500 5499 5497 5500 5496 5495 5494 5493 5493 5492
5374 5373 5373 5373 5375 5377 5381 5383 5385 5388 5390 5393 5397 5401 5405 5409 5414 5420 5425 5429 5433 5433 5436 5441 5449 5451 5455 5460 5466 5470 5473 5475 5475 5477 5480 5480 5483 5481 5478 5480 5491 5491 5489 5487 5488 5486 5485 5486 5486 5484 5483 5483 5482 5480
5373 5373 5373 5373 5373 5375 5376 5377 5378 5379 5382 5384 5388 5391 5396 5400 5404 5410 5418 5422 5423 5423 5426 5430 5433 5443 5446 5450 5456 5459 5462 5463 5464 5464 5467 5467 5468 5467 5465 5470 5481 5478 5476 5475 5475 5474 5475 5474 5475 5474 5472 5470 5469 5468
5374 5373 5373 5373 5372 5372 5372 5372 5373 5374 5376 5379 5382 5385 5387 5391 5394 5401 5410 5412 5415 5417 5420 5419 5422 5432 5438 5443 5446 5449 5451 5452 5452 5453 5458 5457 5456 5455 5456 5467 5466 5466 5464 5463 5463 5463 5464 5464 5462 5460 5459 5457 5456 5454
5375 5374 5374 5373 5372 5370 5368 5368 5367 5368 5369 5374 5378 5380 5381 5383 5388 5398 5403 5404 5406 5409 5410 5412 5417 5422 5428 5433 5435 5439 5440 5441 5441 5443 5446 5446 5447 5448 5453 5454 5454 5454 5453 5452 5452 5453 5452 5451 5449 5447 5445 5443 5441 5439
5376 5376 5376 5374 5373 5371 5369 5367 5366 5367 5368 5370 5373 5374 5377 5382 5389 5394 5395 5396 5397 5398 5400 5404 5411 5414 5419 5423 5426 5429 5428 5429 5430 5434 5434 5435 5437 5441 5441 5442 5441 5441 5440 5441 5440 5440 5438 5435 5434 5431 5429 5428 5427 5426
5379 5379 5378 5377 5376 5374 5372 5371 5370 5370 5370 5371 5373 5375 5379 5383 5386 5389 5391 5392 5393 5394 5397 5402 5407 5409 5413 5414 5415 5417 5417 5420 5420 5423 5423 5424 5429 5431 5430 5429 5428 5428 5428 5427 5427 5425 5423 5420 5418 5417 5416 5416 5415 5415
5383 5382 5381 5379 5378 5377 5376 5374 5373 5373 5374 5375 5377 5378 5380 5382 5384 5385 5385 5387 5388 5390 5392 5397 5402 5404 5405 5407 5408 5410 5410 5411 5411 5413 5413 5415 5419 5418 5418 5417 5416 5415 5414 5413 5411 5409 5407 5406 5405 5405 5405 5405 5405 5405
5385 5383 5382 5382 5381 5379 5379 5379 5378 5377 5377 5377 5378 5380 5379 5382 5382 5382 5384 5386 5388 5390 5394 5396 5398 5399 5400 5401 5401 5401 5400 5399 5401 5401 5402 5406 5406 5405 5404 5403 5402 5400 5399 5397 5396 5395 5394 5394 5394 5393 5393 5394 5394 5394
5387 5385 5384 5383 5382 5381 5381 5380 5381 5380 5380 5380 5381 5381 5381 5381 5382 5383 5384 5386 5388 5388 5390 5391 5391 5392 5393 5394 5392 5392 5391 5390 5389 5390 5393 5394 5392 5390 5389 5388 5387 5386 5384 5384 5383 5382 5382 5381 5381 5381 5380 5380 5380 5381
5389 5388 5387 5385 5384 5383 5383 5382 5381 5381 5380 5380 5380 5380 5380 5381 5380 5380 5381 5382 5382 5382 5383 5383 5384 5384 5384 5383 5382 5381 5380 5379 5379 5380 5380 5378 5376 5375 5375 5374 5373 5372 5371 5370 5369 5369 5368 5367 5366 5365 5364 5364 5364 5364
5392 5390 5389 5388 5387 5385 5384 5383 5382 5381 5380 5379 5378 5377 5376 5376 5375 5375 5375 5375 5375 5374 5373 5373 5373 5372 5372 5371 5370 5369 5369 5368 5367 5365 5364 5364 5363 5362 5361 5360 5359 5358 5357 5355 5354 5353 5352 5350 5349 5349 5348 5347 5345 5345
5394 5392 5390 5389 5387 5386 5384 5383 5381 5380 5378 5377 5376 5374 5373 5372 5370 5369 5368 5367 5366 5366 5365 5364 5363 5362 5361 5359 5359 5358 5357 5355 5354 5353 5352 5351 5349 5348 5347 5345 5344 5342 5341 5339 5337 5335 5333 5331 5329 5328 5328 5327 5325 5326
5393 5392 5389 5387 5385 5383 5381 5379 5377 5376 5374 5372 5370 5369 5366 5365 5363 5361 5359 5357 5356 5354 5353 5352 5351 5349 5347 5346 5345 5344 5343 5342 5341 5340 5338 5336 5334 5332 5331 5331 5328 5326 5324 5321 5319 5317 5314 5310 5308 5307 5304 5304 5303 5305
5390 5388 5385 5382 5380 5378 5375 5373 5371 5368 5365 5363 5360 5358 5355 5353 5351 5349 5347 5345 5344 5342 5341 5339 5337 5336 5335 5334 5333 5332 5330 5329 5329 5327 5324 5320 5318 5318 5317 5314 5312 5310 5308 5306 5302 5299 5296 5292 5289 5286 5283 5281 5282 5283
5382 5379 5376 5373 5370 5367 5365 5362 5359 5356 5353 5350 5347 5344 5341 5339 5337 5335 5334 5332 5331 5329 5328 5327 5326 5325 5324 5323 5322 5320 5318 5317 5316 5315 5312 5308 5305 5304 5302 5300 5298 5295 5293 5290 5286 5283 5282 5279 5274 5271 5268 5265 5265 5265
5374 5370 5367 5364 5360 5357 5353 5349 5346 5343 5339 5337 5334 5331 5329 5327 5325 5324 5322 5321 5320 5319 5318 5318 5317 5316 5314 5313 5312 5311 5308 5307 5305 5303 5302 5300 5295 5292 5290 5286 5284 5283 5281 5279 5277 5274 5271 5270 5267 5265 5262 5260 5260 5261
5365 5361 5356 5352 5348 5345 5341 5337 5335 5331 5329 5326 5324 5322 5320 5318 5316 5314 5313 5312 5311 5311 5311 5310 5310 5309 5307 5306 5305 5303 5302 5299 5296 5293 5291 5290 5288 5284 5281 5278 5277 5275 5273 5271 5269 5267 5265 5264 5262 5260 5259 5258 5257 5258
5354 5350 5345 5341 5338 5334 5332 5329 5327 5324 5322 5320 5317 5314 5311 5309 5306 5304 5303 5303 5303 5303 5303 5304 5303 5303 5301 5299 5298 5296 5294 5291 5288 5286 5284 5282 5279 5277 5276 5273 5272 5270 5268 5267 5265 5263 5260 5258 5257 5255 5253 5252 5252 5252
5343 5339 5336 5333 5329 5327 5325 5324 5322 5320 5317 5314 5310 5307 5303 5300 5298 5296 5295 5295 5295 5296 5297 5298 5298 5297 5295 5294 5293 5290 5288 5286 5283 5281 5279 5278 5275 5274 5272 5271 5269 5267 5265 5262 5260 5258 5256 5254 5252 5251 5249 5248 5248 5248
5336 5332 5330 5327 5325 5324 5323 5321 5319 5317 5313 5310 5307 5304 5301 5299 5296 5294 5293 5293 5293 5294 5295 5295 5295 5294 5292 5289 5287 5286 5284 5283 5281 5279 5277 5276 5274 5273 5271 5269 5267 5265 5262 5260 5258 5256 5253 5251 5249 5247 5246 5245 5244 5244
5329 5327 5326 5324 5323 5323 5321 5319 5317 5315 5311 5309 5307 5306 5303 5301 5300 5298 5297 5296 5295 5295 5294 5293 5292 5291 5289 5288 5286 5284 5282 5281 5279 5278 5277 5275 5274 5272 5271 5269 5267 5265 5263 5260 5257 5253 5249 5245 5243 5242 5241 5241 5241 5242
5326 5324 5324 5323 5323 5322 5320 5318 5316 5314 5311 5310 5309 5307 5305 5303 5302 5300 5299 5297 5296 5295 5293 5292 5291 5289 5288 5286 5285 5283 5282 5281 5279 5279 5277 5276 5275 5273 5272 5270 5268 5267 5264 5261 5255 5249 5244 5241 5240 5241 5242 5243 5243 5243
5324 5324 5324 5323 5322 5321 5319 5318 5315 5313 5312 5311 5310 5308 5307 5305 5303 5302 5300 5298 5297 5295 5294 5292 5291 5289 5288 5287 5285 5284 5284 5283 5282 5281 5280 5278 5277 5275 5273 5272 5272 5270 5267 5263 5258 5250 5246 5245 5246 5248 5249 5249 5249 5249
5324 5324 5324 5323 5322 5321 5319 5317 5315 5313 5312 5311 5311 5310 5308 5306 5304 5302 5301 5299 5297 5296 5295 5293 5292 5291 5289 5288 5287 5287 5286 5286 5286 5285 5284 5282 5280 5278 5277 5277 5276 5274 5271 5268 5266 5259 5255 5254 5255 5256 5257 5259 5260 5261
5324 5324 5323 5323 5322 5320 5319 5317 5315 5313 5312 5311 5311 5311 5309 5308 5306 5304 5302 5300 5299 5297 5296 5294 5293 5292 5291 5290 5289 5289 5289 5289 5289 5288 5287 5285 5282 5281 5282 5282 5280 5278 5276 5275 5274 5272 5269 5266 5265 5266 5267 5269 5271 5273
5323 5323 5323 5322 5321 5320 5319 5317 5315 5314 5312 5311 5311 5311 5310 5309 5307 5305 5303 5301 5300 5299 5298 5296 5295 5294 5293 5293 5292 5292 5292 5293 5292 5292 5290 5288 5287 5287 5287 5287 5285 5283 5282 5282 5282 5281 5281 5280 5281 5280 5281 5281 5283 5285
5321 5321 5321 5320 5320 5319 5318 5316 5315 5314 5312 5311 5310 5310 5310 5309 5308 5307 5305 5303 5301 5300 5299 5298 5297 5296 5295 5295 5295 5295 5295 5296 5296 5295 5294 5293 5292 5293 5293 5292 5291 5290 5289 5290 5291 5291 5291 5292 5293 5294 5295 5297 5299 5300
5318 5318 5318 5317 5317 5316 5316 5315 5313 5312 5311 5310 5309 5308 5308 5309 5308 5308 5306 5304 5303 5301 5301 5300 5299 5298 5298 5297 5297 5298 5298 5299 5299 5299 5298 5297 5297 5298 5298 5298 5298 5297 5297 5297 5298 5299 5301 5302 5304 5306 5307 5309 5312 5314